{"data":{"norad_id":60439,"epoch":"2026-09-21T15:42:43.399008Z","epoch_age_seconds":88641,"freshness":"FRESH","line1":"1 60439U 24144Q   26264.65466897  .00002002  00000+0  70406-4 0  9992","line2":"2 60439  53.1610  22.5435 0001103  97.3508 262.7620 15.34388468118474","mean_motion":15.34388468,"eccentricity":0.0001103,"inclination_deg":53.161,"raan_deg":22.5435,"arg_perigee_deg":97.3508,"mean_anomaly_deg":262.762,"bstar":7.0406e-5,"rev_number":11847,"period_min":93.848463412722,"perigee_km":461.98296749692,"apogee_km":463.49206441514,"semimajor_km":6840.874515956,"source":"CELESTRAK","updated_at":"2026-09-22T09:00:49.236397Z"}}